Morganton, NC

7:47 AM EDT on May 25, 2018 (GMT -0400)
Morganton-Lenoir

Weather History for KMRN - January, 2013

Change the Weather History Date:

Tuesday, January 1, 2013

  Actual Average (WUND) Record (WUND)
Temperature  
Mean Temperature 42 °F -  
Max Temperature 46 °F - - (-1)
Min Temperature 37 °F - - (-1)
Degree Days  
Heating Degree Days 24    
Moisture  
Dew Point 40 °F    
Average Humidity 91    
Maximum Humidity 100    
Minimum Humidity 58    
Precipitation  
Precipitation 0.35 in - - ()
Sea Level Pressure  
Sea Level Pressure 30.04 in    
Wind  
Wind Speed 1 mph (SW)    
Max Wind Speed 7 mph    
Max Gust Speed -    
Visibility 6 miles    
Events Rain    
Averages and records for this station are not official NWS values.
T = Trace of Precipitation, MM = Missing Value Source: NWS Daily Summary

Daily Weather History Graph

Daily Weather History Graph

Search for Another Location

Airport or City:

Astronomy

Jan. 01, 2013 Rise Set
Actual Time 7:36 AM EST 5:23 PM EST
Civil Twilight 7:08 AM EST 5:52 PM EST
Nautical Twilight 6:36 AM EST 6:24 PM EST
Astronomical Twilight 6:05 AM EST 6:55 PM EST
Moon 9:44 PM EST (1/1) 9:56 AM EST (1/1)
Length of Visible Light 10h 44m
Length of Day
9h 47m
Waning Gibbous, 83% of the Moon is Illuminated
Jan 1
Waning Gibbous
Jan 4
Last Quarter
Jan 11
New
Jan 18
First Quarter
Jan 26
Full

Hourly Weather History & Observations

Time (EST) Temp. Windchill Dew Point Humidity Pressure Visibility Wind Dir Wind Speed Gust Speed Precip Events Conditions
12:15 AM 41.9 °F 40.0 °F 28.4 °F 59% 30.12 in 10.0 mi South 3.5 mph - N/A   Overcast
12:35 AM 41.9 °F - 28.2 °F 58% 30.10 in 10.0 mi Calm Calm - N/A   Overcast
1:15 AM 39.4 °F - 30.9 °F 72% 30.08 in 10.0 mi Calm Calm - N/A Rain Light Rain
1:35 AM 38.3 °F 35.9 °F 33.6 °F 83% 30.07 in 10.0 mi North 3.5 mph - N/A Rain Light Rain
1:55 AM 38.7 °F - 30.7 °F 73% 30.08 in 10.0 mi Calm Calm - N/A   Scattered Clouds
2:15 AM 39.0 °F - 30.9 °F 73% 30.08 in 10.0 mi Calm Calm - N/A   Clear
2:35 AM 39.2 °F 37.0 °F 30.6 °F 71% 30.09 in 10.0 mi NNW 3.5 mph - N/A   Clear
2:55 AM 39.4 °F - 30.0 °F 69% 30.08 in 10.0 mi Calm Calm - N/A   Mostly Cloudy
3:15 AM 40.1 °F - 30.4 °F 68% 30.08 in 10.0 mi Calm Calm - N/A   Scattered Clouds
3:35 AM 38.8 °F - 32.0 °F 76% 30.08 in 10.0 mi Calm Calm - N/A   Clear
4:15 AM 38.7 °F - 32.9 °F 80% 30.07 in 10.0 mi Calm Calm - N/A   Scattered Clouds
4:35 AM 39.2 °F 37.0 °F 32.2 °F 76% 30.07 in 10.0 mi NNW 3.5 mph - N/A   Scattered Clouds
4:55 AM 39.2 °F - 32.5 °F 77% 30.07 in 10.0 mi Calm Calm - N/A   Scattered Clouds
5:15 AM 38.7 °F - 33.6 °F 82% 30.06 in 10.0 mi Calm Calm - N/A   Scattered Clouds
5:35 AM 39.4 °F - 33.1 °F 78% 30.08 in 10.0 mi Calm Calm - N/A   Clear
6:15 AM 39.2 °F - 33.3 °F 79% 30.08 in 10.0 mi Calm Calm - N/A Rain Rain
6:35 AM 38.8 °F 36.5 °F 34.7 °F 85% 30.10 in 10.0 mi NW 3.5 mph - N/A   Light Drizzle
7:15 AM 37.9 °F 33.5 °F 35.8 °F 92% 30.07 in 10.0 mi SSE 5.8 mph - N/A Rain Light Rain
7:35 AM 38.7 °F - 35.8 °F 89% 30.10 in 7.0 mi Calm Calm - 0.01 in Rain Light Rain
7:55 AM 38.1 °F - 36.1 °F 93% 30.10 in 7.0 mi Calm Calm - 0.01 in Rain Light Rain
8:15 AM 38.3 °F - 36.7 °F 94% 30.10 in 7.0 mi Calm Calm - 0.01 in Rain Light Rain
8:35 AM 38.7 °F - 36.9 °F 93% 30.10 in 5.0 mi Calm Calm - 0.01 in Rain Light Rain
8:55 AM 38.7 °F - 36.5 °F 92% 30.10 in 7.0 mi Calm Calm - 0.02 in Rain Light Rain
9:15 AM 39.2 °F - 36.9 °F 91% 30.10 in 10.0 mi Calm Calm - N/A Rain Light Rain
9:35 AM 39.2 °F 37.0 °F 37.8 °F 95% 30.10 in 7.0 mi South 3.5 mph - N/A Rain Light Rain
10:15 AM 40.3 °F - 38.7 °F 94% 30.10 in 10.0 mi Calm Calm - N/A Rain Light Rain
10:35 AM 41.2 °F - 39.0 °F 92% 30.09 in 10.0 mi Calm Calm - N/A Rain Light Rain
11:15 AM 42.1 °F 40.2 °F 40.3 °F 93% 30.07 in 7.0 mi SSW 3.5 mph - 0.01 in   Light Drizzle
11:35 AM 42.6 °F 40.9 °F 40.8 °F 93% 30.07 in 7.0 mi SW 3.5 mph - 0.01 in Rain Light Rain
11:55 AM 43.3 °F 41.7 °F 40.8 °F 91% 30.06 in 10.0 mi SW 3.5 mph - 0.01 in Rain Light Rain
12:15 PM 43.7 °F 42.1 °F 41.2 °F 91% 30.06 in 7.0 mi SSW 3.5 mph - 0.02 in Rain Rain
12:35 PM 44.1 °F 42.5 °F 42.3 °F 93% 30.05 in 7.0 mi SSW 3.5 mph - 0.04 in Rain Rain
12:55 PM 44.2 °F 42.7 °F 43.0 °F 95% 30.03 in 5.0 mi SSW 3.5 mph - 0.06 in Rain Rain
1:15 PM 44.6 °F - 43.7 °F 97% 30.02 in 5.0 mi Calm Calm - 0.01 in   Unknown
1:35 PM 44.8 °F 43.3 °F 44.2 °F 98% 30.00 in 3.0 mi South 3.5 mph - 0.03 in   Unknown
1:55 PM 45.0 °F - 44.6 °F 99% 29.99 in 4.0 mi Calm Calm - 0.03 in   Overcast
2:15 PM 44.6 °F 40.7 °F 44.4 °F 99% 30.00 in 4.0 mi NNW 6.9 mph - N/A Rain Light Rain
2:35 PM 44.6 °F 41.4 °F 44.6 °F 100% 30.00 in 5.0 mi NW 5.8 mph - N/A Rain Light Rain
3:15 PM 45.9 °F 42.3 °F 45.0 °F 97% 29.99 in 10.0 mi SSW 6.9 mph - 0.01 in Rain Light Rain
3:35 PM 46.4 °F 45.2 °F 45.5 °F 97% 30.00 in 10.0 mi SSW 3.5 mph - 0.01 in Rain Light Rain
4:15 PM 46.4 °F 45.2 °F 45.7 °F 97% 30.00 in 5.0 mi South 3.5 mph - N/A Rain Light Rain
4:35 PM 46.0 °F 44.8 °F 45.7 °F 99% 30.01 in 4.0 mi SSW 3.5 mph - 0.01 in Rain Rain
4:55 PM 45.9 °F - 45.7 °F 99% 30.01 in 2.5 mi Calm Calm - 0.05 in Rain Rain
5:15 PM 46.0 °F - 45.9 °F 99% 30.01 in 3.0 mi Calm Calm - 0.02 in Rain Light Rain
5:35 PM 45.9 °F - 45.9 °F 100% 30.01 in 1.8 mi Calm Calm - 0.04 in   Unknown
5:55 PM 45.9 °F - 45.9 °F 100% 30.00 in 2.0 mi Calm Calm - 0.05 in   Unknown
6:15 PM 45.9 °F - 45.9 °F 100% 30.00 in 2.5 mi Calm Calm - 0.01 in   Unknown
6:35 PM 46.0 °F - 46.0 °F 100% 30.00 in 1.8 mi Calm Calm - 0.02 in   Unknown
6:55 PM 45.7 °F - 45.7 °F 100% 30.01 in 1.8 mi Calm Calm - 0.02 in   Overcast
7:15 PM 46.4 °F - 46.4 °F 100% 30.01 in 1.8 mi Calm Calm - 0.01 in   Overcast
7:35 PM 46.0 °F 44.8 °F 46.0 °F 100% 30.01 in 1.0 mi South 3.5 mph - 0.01 in Rain Light Rain
7:55 PM 46.4 °F - 46.4 °F 100% 30.02 in 2.5 mi Calm Calm - 0.03 in Rain Light Rain
8:15 PM 46.4 °F - 46.4 °F 100% 30.01 in 2.0 mi Calm Calm - N/A Rain Light Rain
8:35 PM 46.4 °F - 46.4 °F 100% 30.01 in 3.0 mi Calm Calm - N/A Rain Light Rain
8:55 PM 46.4 °F - 46.4 °F 100% 30.00 in 2.0 mi Calm Calm - 0.01 in Rain Light Rain
9:15 PM 46.2 °F - 46.2 °F 100% 30.00 in 2.5 mi Calm Calm - N/A   Overcast
9:35 PM 46.0 °F - 46.0 °F 100% 30.01 in 1.5 mi Calm Calm - N/A Rain Light Rain
9:55 PM 46.0 °F - 46.0 °F 100% 30.01 in 1.0 mi Calm Calm - 0.02 in Rain Light Rain
10:15 PM 45.9 °F - 45.9 °F 100% 30.00 in 1.8 mi Calm Calm - 0.01 in Rain Rain
10:35 PM 45.7 °F - 45.7 °F 100% 30.00 in 1.2 mi Calm Calm - 0.02 in Rain Light Rain
10:55 PM 45.5 °F - 45.5 °F 100% 30.00 in 1.5 mi Calm Calm - 0.02 in Rain Light Rain
11:15 PM 45.5 °F - 45.5 °F 100% 30.00 in 1.0 mi Calm Calm - 0.01 in Rain Light Rain
11:35 PM 45.3 °F - 45.3 °F 100% 29.99 in 0.8 mi Calm Calm - 0.01 in   Overcast
11:55 PM 45.1 °F - 45.1 °F 100% 29.99 in 1.0 mi Calm Calm - 0.01 in   Overcast